Regional Weather Roundup
Issued by NWS Newport/Morehead, NC

Current Version | Previous Version | Text Only | Print | Product List | Glossary On
Versions: 1 2 3 4 5 6 7 8 9 10 11 12 13 14 15 16 17 18 19 20 21 22 23 24 25 26 27 28 29 30 31 32 33 34 35 36 37 38 39 40 41 42 43 44 45 46 47 48 49 50
000 ASUS42 KMHX 230713 RWRMHX WEATHER ROUNDUP FOR EASTERN NORTH CAROLINA NATIONAL WEATHER SERVICE NEWPORT/MOREHEAD CITY NC 300 AM EDT SAT JUL 23 2016 NOTE: "FAIR" INDICATES FEW OR NO CLOUDS BELOW 12,000 FEET WITH NO SIGNIFICANT WEATHER AND/OR OBSTRUCTIONS TO VISIBILITY NCZ015>017-031-032-045>047-102-103-230800- NORTH COAST CITY SKY/WX TMP DP RH WIND PRES REMARKS EDENTON CLEAR 80 70 72 SW9 30.00F ELIZABETH CITY CLEAR 76 70 82 SW10 29.99S KITTY HAWK SUNNY 79 72 80 SW7 29.99S MANTEO N/A 78 74 87 SW12 30.00S $$ NCZ045>047-081-094-103-104-230800- CENTRAL COAST CITY SKY/WX TMP DP RH WIND PRES REMARKS FRISCO PTCLDY 82 73 74 W6 30.01S $$ NCZ095-097-098-100-101-230800- SOUTHERN COAST CITY SKY/WX TMP DP RH WIND PRES REMARKS BEAUFORT CLEAR 81 73 76 SW8 30.01F CEDAR ISLAND NOT AVBL JACKSONVILLE CLEAR 74 70 87 W3 30.01F PINEY ISLAND SUNNY N/A N/A N/A SW5 30.01S WILMINGTON CLEAR 76 72 87 CALM 30.02S $$ NCZ011>013-027>030-043-044-078>080-089-090>093-098-230800- COASTAL PLAIN CITY SKY/WX TMP DP RH WIND PRES REMARKS AHOSKIE CLEAR 73 71 94 CALM 29.99S CLINTON MOCLDY 74 73 97 CALM 30.02F ELIZABETHTOWN PTCLDY 77 73 86 CALM 30.01F GOLDSBORO CLEAR 75 75 100 S2 29.99F GREENVILLE CLEAR 75 72 88 SW5 30.02S HAVELOCK CLEAR 75 70 84 SW5 30.02F KENANSVILLE CLEAR 72 70 94 CALM 30.02F KINSTON CLEAR 73 71 91 SW3 30.02S NEW BERN CLEAR 74 71 91 SW3 30.03S RICHLANDS CLEAR 71 70 96 CALM 30.02F ROCKY MOUNT CLEAR 75 73 93 S5 30.00F WASHINGTON CLEAR 76 70 83 SW7 30.00F WHITEVILLE CLOUDY 77 72 86 CALM 30.01F $$ AMZ130-135-150-152-154-156-158-170-250-252-270-ANZ085-086-088-633-658-670-230800- MARINE OBSERVATIONS STATION/POSITION TIME TEMP WIND PRES WAVE SWELL AIR SEA DIR/SP/G HT/PER HT/PER (UTC) (F) (DEG/KT/KT) (MB) (FT/S) (FT/S) CHESAPEAKE LIGHT NOT AVBL 64 E VA BEACH 0650 81 80 230/ 17/ 21 1014.7 4/ 4 2/ 8 DUCK 0600 81 67 230/ 13/ 20 1015.0 2 E DUCK 0641 71 N/A 2/ 8 OREGON INLET 0600 82 85 230/ 13/ 16 1015.8 13E OREGON INLT 0700 81 N/A 2/ 9 2/ 9 HATTERAS CG 0600 81 84 240/ 6/ 10 1016.0 DIAMOND BUOY 0650 83 85 230/ 12/ 14 1016.3 3/ 9 2/ 9 CAPE LOOKOUT 0700 81 220/ 6/ 7 1016.1 BEAUFORT LAB 0600 82 83 230/ 3/ 7 1015.8 30 SE NEW RVR IN 0608 83 85 240/ 10/ 12 1016.5 30 SE NEW RVR IN 0625 85 N/A 2/ 8 27 SE WRIGHTSVLE 0608 83 85 230/ 10/ 14 1016.7 5 SE WRIGHTSVLE 0608 84 84 240/ 12/ 14 1017.4 225 S CAPE HAT 0650 81 85 210/ 6/ 8 1016.9 3/ 9 3/ 9 41 SE CHARLESTON 0650 84 86 220/ 10/ 14 1016.1 3/ 9 3/ 9 $$

USA.gov is the U.S. government's official web portal to all federal, state and local government web resources and services.